"read_dt","SO2 (ppb)","flags","PMT voltage (V)","lamp voltage (V)","lamp intensity (Hz)","internal temp (C)","react chamber temp (C)","sample flow (l/min)","pres (mmHg)","SO2 bkg (ppb)","SO2 coefficient"
2016-04-16 00:00:00,1814E-3,5C000400,-0724,0836,12391,022.4,045.3,0.264,762.4,01.16,0.508
2016-04-16 00:01:00,1791E-3,5C000400,-0724,0834,12337,022.5,045.3,0.265,762.4,01.16,0.508
2016-04-16 00:02:00,1726E-3,5C000400,-0724,0833,12079,022.5,045.3,0.265,762.4,01.16,0.508
2016-04-16 00:03:00,1694E-3,5C000400,-0724,0833,12074,022.5,045.3,0.265,762.4,01.16,0.508
2016-04-16 00:04:00,1784E-3,5C000400,-0724,0833,12075,022.5,045.3,0.265,762.4,01.16,0.508
2016-04-16 00:05:00,1673E-3,5C000400,-0724,0833,12147,022.5,045.3,0.265,762.4,01.16,0.508
2016-04-16 00:06:00,1729E-3,5C000400,-0724,0834,12253,022.5,045.3,0.265,762.4,01.16,0.508
2016-04-16 00:07:00,1795E-3,5C000400,-0724,0834,12077,022.5,045.3,0.265,762.4,01.16,0.508
2016-04-16 00:08:00,1829E-3,5C000400,-0724,0834,12254,022.5,045.3,0.265,762.4,01.16,0.508
2016-04-16 00:09:00,1819E-3,5C000400,-0724,0836,12198,022.5,045.3,0.265,762.4,01.16,0.508
2016-04-16 00:10:00,1806E-3,5C000400,-0724,0833,12190,022.5,045.3,0.265,762.4,01.16,0.508
2016-04-16 00:11:00,1749E-3,5C000400,-0724,0839,11342,022.5,045.3,0.265,762.4,01.16,0.508
2016-04-16 00:12:00,1819E-3,5C000400,-0724,0835,12375,022.5,045.3,0.264,762.4,01.16,0.508
2016-04-16 00:13:00,1839E-3,5C000400,-0724,0834,12186,022.5,045.3,0.265,762.4,01.16,0.508
2016-04-16 00:14:00,1769E-3,5C000400,-0724,0835,12271,022.5,045.3,0.265,762.4,01.16,0.508
2016-04-16 00:15:00,1731E-3,5C000400,-0724,0836,12308,022.6,045.3,0.264,762.4,01.16,0.508
2016-04-16 00:16:00,1832E-3,5C000400,-0724,0835,12237,022.5,045.3,0.265,762.4,01.16,0.508
2016-04-16 00:17:00,1833E-3,5C000400,-0724,0833,12197,022.5,045.3,0.265,762.4,01.16,0.508
2016-04-16 00:18:00,1922E-3,5C000400,-0724,0835,12281,022.5,045.3,0.264,762.4,01.16,0.508
2016-04-16 00:19:00,1846E-3,5C000400,-0724,0834,12117,022.5,045.3,0.265,762.4,01.16,0.508
2016-04-16 00:20:00,1726E-3,5C000400,-0724,0835,12209,022.5,045.3,0.265,762.4,01.16,0.508
2016-04-16 00:21:00,1798E-3,5C000400,-0724,0836,12305,022.5,045.3,0.264,762.4,01.16,0.508
2016-04-16 00:22:00,1762E-3,5C000400,-0724,0835,12107,022.5,045.3,0.265,762.3,01.16,0.508
2016-04-16 00:23:00,1739E-3,5C000400,-0724,0836,12228,022.5,045.3,0.265,762.3,01.16,0.508
2016-04-16 00:24:00,1734E-3,5C000400,-0724,0836,12432,022.5,045.3,0.264,762.3,01.16,0.508
2016-04-16 00:25:00,1837E-3,5C000400,-0724,0833,12211,022.5,045.3,0.264,762.3,01.16,0.508
2016-04-16 00:26:00,1818E-3,5C000400,-0724,0836,11196,022.5,045.3,0.265,762.2,01.16,0.508
2016-04-16 00:27:00,1830E-3,5C000400,-0724,0835,11100,022.6,045.3,0.265,762.2,01.16,0.508
2016-04-16 00:28:00,1716E-3,5C000400,-0724,0835,12300,022.6,045.3,0.265,762.2,01.16,0.508
2016-04-16 00:29:00,1666E-3,5C000400,-0724,0837,12621,022.6,045.3,0.265,762.2,01.16,0.508
2016-04-16 00:30:00,1821E-3,5C000400,-0724,0840,12345,022.6,045.3,0.265,762.2,01.16,0.508
2016-04-16 00:31:00,1695E-3,5C000400,-0724,0839,11197,022.6,045.3,0.265,762.3,01.16,0.508
2016-04-16 00:32:00,1886E-3,5C000400,-0724,0835,11391,022.6,045.3,0.264,762.2,01.16,0.508
2016-04-16 00:33:00,1731E-3,5C000400,-0724,0835,12194,022.6,045.3,0.265,762.2,01.16,0.508
2016-04-16 00:34:00,1657E-3,5C000400,-0724,0837,12253,022.6,045.3,0.264,762.2,01.16,0.508
2016-04-16 00:35:00,1723E-3,5C000400,-0724,0836,12362,022.6,045.3,0.265,762.2,01.16,0.508
2016-04-16 00:36:00,1805E-3,5C000400,-0724,0839,12401,022.6,045.3,0.264,762.2,01.16,0.508
2016-04-16 00:37:00,1863E-3,5C000400,-0724,0834,12337,022.6,045.3,0.265,762.2,01.16,0.508
2016-04-16 00:38:00,1714E-3,5C000400,-0724,0835,12569,022.6,045.3,0.265,762.2,01.16,0.508
2016-04-16 00:39:00,1770E-3,5C000400,-0724,0836,12464,022.6,045.3,0.264,762.2,01.16,0.508
2016-04-16 00:40:00,1671E-3,5C000400,-0724,0840,11313,022.6,045.3,0.265,762.2,01.16,0.508
2016-04-16 00:41:00,1699E-3,5C000400,-0724,0836,10014,022.6,045.3,0.265,762.2,01.16,0.508
2016-04-16 00:42:00,1779E-3,5C000400,-0724,0836,11096,022.6,045.3,0.264,762.2,01.16,0.508
2016-04-16 00:43:00,1701E-3,5C000400,-0724,0835,12342,022.6,045.3,0.264,762.2,01.16,0.508
2016-04-16 00:44:00,1728E-3,5C000400,-0724,0838,12378,022.6,045.3,0.264,762.2,01.16,0.508
2016-04-16 00:45:00,1755E-3,5C000400,-0724,0835,12243,022.6,045.3,0.264,762.2,01.16,0.508
2016-04-16 00:46:00,1837E-3,5C000400,-0724,0835,12093,022.6,045.3,0.265,762.2,01.16,0.508
2016-04-16 00:47:00,1826E-3,5C000400,-0724,0833,12088,022.6,045.3,0.264,762.2,01.16,0.508
2016-04-16 00:48:00,1706E-3,5C000400,-0724,0839,12421,022.6,045.3,0.264,762.2,01.16,0.508
2016-04-16 00:49:00,1888E-3,5C000400,-0724,0834,12341,022.6,045.3,0.264,762.1,01.16,0.508
2016-04-16 00:50:00,1810E-3,5C000400,-0724,0834,12440,022.6,045.3,0.264,762.2,01.16,0.508
2016-04-16 00:51:00,1816E-3,5C000400,-0724,0835,11049,022.6,045.3,0.264,762.2,01.16,0.508
2016-04-16 00:52:00,1971E-3,5C000400,-0724,0835,12389,022.6,045.3,0.265,762.2,01.16,0.508
2016-04-16 00:53:00,1685E-3,5C000400,-0724,0838,12551,022.6,045.3,0.265,762.2,01.16,0.508
2016-04-16 00:54:00,1807E-3,5C000400,-0724,0837,10031,022.7,045.3,0.264,762.2,01.16,0.508
2016-04-16 00:55:00,1729E-3,5C000400,-0724,0837,11185,022.6,045.3,0.264,762.2,01.16,0.508
2016-04-16 00:56:00,1685E-3,5C000400,-0724,0837,11396,022.7,045.3,0.265,762.2,01.16,0.508
2016-04-16 00:57:00,1791E-3,5C000400,-0724,0836,12221,022.6,045.3,0.264,762.2,01.16,0.508
2016-04-16 00:58:00,1742E-3,5C000400,-0724,0837,12400,022.7,045.3,0.265,762.2,01.16,0.508
2016-04-16 00:59:00,1779E-3,5C000400,-0724,0835,11417,022.7,045.3,0.264,762.2,01.16,0.508
2016-04-16 01:00:00,1711E-3,5C000400,-0724,0837,12234,022.7,045.3,0.264,762.2,01.16,0.508
2016-04-16 01:01:00,1776E-3,5C000400,-0724,0837,12538,022.7,045.3,0.264,762.2,01.16,0.508
2016-04-16 01:02:00,1688E-3,5C000400,-0724,0836,12614,022.7,045.3,0.264,762.2,01.16,0.508
2016-04-16 01:03:00,1710E-3,5C000400,-0724,0835,12330,022.7,045.3,0.265,762.2,01.16,0.508
2016-04-16 01:04:00,1918E-3,5C000400,-0724,0837,12338,022.7,045.3,0.264,762.2,01.16,0.508
2016-04-16 01:05:00,1924E-3,5C000400,-0724,0836,12358,022.7,045.3,0.264,762.2,01.16,0.508
2016-04-16 01:06:00,1655E-3,5C000400,-0724,0839,11424,022.7,045.3,0.264,762.2,01.16,0.508
2016-04-16 01:07:00,1722E-3,5C000400,-0724,0837,12349,022.7,045.3,0.265,762.1,01.16,0.508
2016-04-16 01:08:00,1730E-3,5C000400,-0724,0836,12425,022.7,045.3,0.264,762.1,01.16,0.508
2016-04-16 01:09:00,1715E-3,5C000400,-0724,0836,12280,022.7,045.3,0.264,762.1,01.16,0.508
2016-04-16 01:10:00,1788E-3,5C000400,-0724,0833,11040,022.8,045.3,0.264,762.1,01.16,0.508
2016-04-16 01:11:00,1749E-3,5C000400,-0724,0836,12206,022.7,045.3,0.264,762.2,01.16,0.508
2016-04-16 01:12:00,1840E-3,5C000400,-0724,0834,12363,022.7,045.3,0.264,762.1,01.16,0.508
2016-04-16 01:13:00,1631E-3,5C000400,-0724,0837,12381,022.8,045.3,0.265,762.1,01.16,0.508
2016-04-16 01:14:00,1655E-3,5C000400,-0724,0836,12224,022.7,045.3,0.264,762.1,01.16,0.508
2016-04-16 01:15:00,1774E-3,5C000400,-0724,0835,11170,022.7,045.3,0.264,762.1,01.16,0.508
2016-04-16 01:16:00,1664E-3,5C000400,-0724,0835,12303,022.8,045.3,0.264,762.1,01.16,0.508
2016-04-16 01:17:00,1743E-3,5C000400,-0724,0836,12272,022.8,045.3,0.264,762.1,01.16,0.508
2016-04-16 01:18:00,1891E-3,5C000400,-0724,0836,11066,022.8,045.3,0.264,762.1,01.16,0.508
2016-04-16 01:19:00,1812E-3,5C000400,-0724,0839,12341,022.8,045.3,0.264,762.1,01.16,0.508
2016-04-16 01:20:00,1888E-3,5C000400,-0724,0835,11045,022.8,045.3,0.264,762.1,01.16,0.508
2016-04-16 01:21:00,1783E-3,5C000400,-0724,0834,11005,022.8,045.3,0.265,762.1,01.16,0.508
2016-04-16 01:22:00,1626E-3,5C000400,-0724,0834,12344,022.8,045.3,0.264,762.1,01.16,0.508
2016-04-16 01:23:00,1814E-3,5C000400,-0724,0835,12180,022.8,045.3,0.264,762.1,01.16,0.508
2016-04-16 01:24:00,1712E-3,5C000400,-0724,0838,12550,022.8,045.3,0.264,762.1,01.16,0.508
2016-04-16 01:25:00,1722E-3,5C000400,-0724,0837,12475,022.8,045.3,0.264,762.1,01.16,0.508
2016-04-16 01:26:00,1660E-3,5C000400,-0724,0833,12264,022.8,045.3,0.264,762.1,01.16,0.508
2016-04-16 01:27:00,1756E-3,5C000400,-0724,0836,12366,022.8,045.3,0.264,762.1,01.16,0.508
2016-04-16 01:28:00,1755E-3,5C000400,-0724,0834,12223,022.9,045.3,0.264,762.1,01.16,0.508
2016-04-16 01:29:00,1795E-3,5C000400,-0724,0834,12190,022.9,045.3,0.264,762.1,01.16,0.508
2016-04-16 01:30:00,1808E-3,5C000400,-0724,0833,12044,022.9,045.3,0.264,762.0,01.16,0.508
2016-04-16 01:31:00,1788E-3,5C000400,-0724,0836,11008,022.9,045.3,0.264,762.0,01.16,0.508
2016-04-16 01:32:00,1850E-3,5C000400,-0724,0833,12107,022.9,045.3,0.264,762.0,01.16,0.508
2016-04-16 01:33:00,1844E-3,5C000410,-0724,0836,12356,022.9,045.3,0.264,762.0,01.16,0.508
2016-04-16 01:34:00,1828E-3,5C000400,-0724,0836,12356,022.9,045.3,0.264,762.0,01.16,0.508
2016-04-16 01:35:00,1745E-3,5C000400,-0724,0833,12247,023.0,045.3,0.264,762.0,01.16,0.508
2016-04-16 01:36:00,1773E-3,5C000400,-0724,0836,12292,022.9,045.3,0.264,762.0,01.16,0.508
2016-04-16 01:37:00,1799E-3,5C000400,-0724,0835,12422,022.9,045.3,0.264,762.0,01.16,0.508
2016-04-16 01:38:00,1742E-3,5C000400,-0724,0835,12127,023.0,045.3,0.264,762.0,01.16,0.508
2016-04-16 01:39:00,1618E-3,5C000400,-0724,0836,12565,023.0,045.3,0.264,762.0,01.16,0.508
2016-04-16 01:40:00,1868E-3,5C000400,-0724,0834,12113,023.0,045.3,0.264,762.0,01.16,0.508
2016-04-16 01:41:00,1805E-3,5C000400,-0724,0833,12274,023.0,045.3,0.264,762.0,01.16,0.508
2016-04-16 01:42:00,1728E-3,5C000400,-0724,0834,12291,023.0,045.3,0.264,762.0,01.16,0.508
2016-04-16 01:43:00,1604E-3,5C000400,-0724,0836,11298,023.0,045.3,0.264,762.0,01.16,0.508
2016-04-16 01:44:00,1701E-3,5C000400,-0724,0836,12087,023.0,045.3,0.263,762.0,01.16,0.508
2016-04-16 01:45:00,1738E-3,5C000400,-0724,0835,12208,023.0,045.3,0.264,762.1,01.16,0.508
2016-04-16 01:46:00,1857E-3,5C000400,-0724,0835,12367,023.0,045.3,0.264,762.0,01.16,0.508
2016-04-16 01:47:00,1691E-3,5C000400,-0724,0835,11094,023.0,045.3,0.264,762.1,01.16,0.508
2016-04-16 01:48:00,1659E-3,5C000400,-0724,0834,11024,023.0,045.3,0.264,762.1,01.16,0.508
2016-04-16 01:49:00,1819E-3,5C000410,-0724,0836,9957,023.0,045.3,0.264,762.1,01.16,0.508
2016-04-16 01:50:00,1842E-3,5C000400,-0724,0834,12296,023.0,045.3,0.264,762.1,01.16,0.508
2016-04-16 01:51:00,1746E-3,5C000400,-0724,0834,12361,023.0,045.3,0.264,762.1,01.16,0.508
2016-04-16 01:52:00,1660E-3,5C000400,-0724,0837,11083,023.0,045.3,0.264,762.1,01.16,0.508
2016-04-16 01:53:00,1751E-3,5C000400,-0724,0837,12351,023.0,045.3,0.264,762.1,01.16,0.508
2016-04-16 01:54:00,1735E-3,5C000400,-0724,0837,12269,023.0,045.3,0.264,762.1,01.16,0.508
2016-04-16 01:55:00,1684E-3,5C000400,-0724,0834,12052,023.0,045.3,0.264,762.1,01.16,0.508
2016-04-16 01:56:00,1694E-3,5C000410,-0724,0836,12446,023.0,045.3,0.264,762.1,01.16,0.508
2016-04-16 01:57:00,1789E-3,5C000400,-0724,0836,12283,023.0,045.3,0.264,762.1,01.16,0.508
2016-04-16 01:58:00,1771E-3,5C000400,-0724,0835,11032,023.0,045.3,0.264,762.1,01.16,0.508
2016-04-16 01:59:00,1829E-3,5C000400,-0724,0837,12399,023.0,045.3,0.264,762.1,01.16,0.508
2016-04-16 02:00:00,1747E-3,5C000400,-0724,0836,12354,023.0,045.3,0.264,762.0,01.16,0.508
2016-04-16 02:01:00,1830E-3,5C000400,-0724,0835,9930,023.0,045.3,0.264,762.0,01.16,0.508
2016-04-16 02:02:00,1772E-3,5C000400,-0724,0836,12436,023.0,045.3,0.263,762.0,01.16,0.508
2016-04-16 02:03:00,1771E-3,5C000400,-0724,0836,12184,023.1,045.3,0.264,762.0,01.16,0.508
2016-04-16 02:04:00,1797E-3,5C000400,-0724,0835,12221,023.1,045.3,0.264,762.0,01.16,0.508
2016-04-16 02:05:00,1736E-3,5C000400,-0724,0835,12132,023.1,045.3,0.264,762.0,01.16,0.508
2016-04-16 02:06:00,1692E-3,5C000400,-0724,0838,12588,023.1,045.3,0.264,762.0,01.16,0.508
2016-04-16 02:07:00,1730E-3,5C000400,-0724,0836,11463,023.1,045.3,0.264,762.0,01.16,0.508
2016-04-16 02:08:00,1769E-3,5C000400,-0724,0836,12259,023.1,045.3,0.264,761.9,01.16,0.508
2016-04-16 02:09:00,1730E-3,5C000400,-0724,0837,12522,023.1,045.3,0.264,761.9,01.16,0.508
2016-04-16 02:10:00,1792E-3,5C000400,-0724,0837,12359,023.1,045.3,0.264,761.9,01.16,0.508
2016-04-16 02:11:00,1804E-3,5C000400,-0724,0835,11055,023.1,045.3,0.264,762.0,01.16,0.508
2016-04-16 02:12:00,1898E-3,5C000400,-0724,0833,12010,023.2,045.3,0.263,761.9,01.16,0.508
2016-04-16 02:13:00,1875E-3,5C000400,-0724,0835,12208,023.2,045.3,0.264,761.9,01.16,0.508
2016-04-16 02:14:00,1895E-3,5C000400,-0724,0835,9828,023.2,045.3,0.264,761.9,01.16,0.508
2016-04-16 02:15:00,1642E-3,5C000400,-0724,0836,12448,023.2,045.3,0.263,761.9,01.16,0.508
2016-04-16 02:16:00,1716E-3,5C000400,-0724,0836,11232,023.2,045.3,0.264,761.9,01.16,0.508
2016-04-16 02:17:00,1709E-3,5C000400,-0724,0836,11299,023.2,045.3,0.264,761.9,01.16,0.508
2016-04-16 02:18:00,1666E-3,5C000400,-0724,0836,12464,023.2,045.3,0.263,762.0,01.16,0.508
2016-04-16 02:19:00,1707E-3,5C000400,-0724,0833,12127,023.2,045.3,0.264,761.9,01.16,0.508
2016-04-16 02:20:00,1867E-3,5C000400,-0724,0836,12053,023.2,045.3,0.263,761.9,01.16,0.508
2016-04-16 02:21:00,1817E-3,5C000400,-0724,0837,12068,023.2,045.3,0.264,762.0,01.16,0.508
2016-04-16 02:22:00,1801E-3,5C000400,-0724,0833,10921,023.3,045.3,0.263,761.9,01.16,0.508
2016-04-16 02:23:00,1636E-3,5C000400,-0724,0834,12177,023.3,045.3,0.264,761.9,01.16,0.508
2016-04-16 02:24:00,1725E-3,5C000400,-0724,0835,12038,023.3,045.3,0.263,761.9,01.16,0.508
2016-04-16 02:25:00,1703E-3,5C000400,-0724,0835,11215,023.3,045.3,0.263,761.9,01.16,0.508
2016-04-16 02:26:00,1732E-3,5C000400,-0724,0834,12176,023.3,045.3,0.264,761.9,01.16,0.508
2016-04-16 02:27:00,1803E-3,5C000400,-0724,0837,12312,023.3,045.3,0.263,761.9,01.16,0.508
2016-04-16 02:28:00,1753E-3,5C000400,-0724,0843,12618,023.3,045.3,0.264,761.8,01.16,0.508
2016-04-16 02:29:00,1857E-3,5C000400,-0724,0837,12327,023.3,045.3,0.263,761.8,01.16,0.508
2016-04-16 02:30:00,1802E-3,5C000400,-0724,0835,12100,023.3,045.3,0.263,761.8,01.16,0.508
2016-04-16 02:31:00,1553E-3,5C000400,-0724,0839,12337,023.3,045.3,0.263,761.8,01.16,0.508
2016-04-16 02:32:00,1761E-3,5C000400,-0724,0833,8666,023.3,045.3,0.263,761.8,01.16,0.508
2016-04-16 02:33:00,1816E-3,5C000410,-0724,0833,11161,023.4,045.3,0.263,761.8,01.16,0.508
2016-04-16 02:34:00,1737E-3,5C000400,-0724,0839,12590,023.3,045.3,0.263,761.8,01.16,0.508
2016-04-16 02:35:00,1672E-3,5C000400,-0724,0837,9769,023.3,045.3,0.263,761.8,01.16,0.508
2016-04-16 02:36:00,1668E-3,5C000400,-0724,0836,12113,023.4,045.3,0.263,761.8,01.16,0.508
2016-04-16 02:37:00,1701E-3,5C000400,-0724,0836,12304,023.4,045.3,0.263,761.9,01.16,0.508
2016-04-16 02:38:00,1890E-3,5C000400,-0724,0833,12520,023.4,045.3,0.263,761.9,01.16,0.508
2016-04-16 02:39:00,1860E-3,5C000400,-0724,0835,12256,023.4,045.3,0.263,761.9,01.16,0.508
2016-04-16 02:40:00,1810E-3,5C000400,-0724,0833,9716,023.4,045.3,0.263,761.9,01.16,0.508
2016-04-16 02:41:00,1730E-3,5C000400,-0724,0833,12144,023.4,045.3,0.263,761.9,01.16,0.508
2016-04-16 02:42:00,1737E-3,5C000400,-0724,0836,12323,023.4,045.3,0.263,761.8,01.16,0.508
2016-04-16 02:43:00,1766E-3,5C000400,-0724,0833,12205,023.4,045.3,0.263,761.8,01.16,0.508
2016-04-16 02:44:00,1755E-3,5C000400,-0724,0836,12480,023.5,045.3,0.263,761.8,01.16,0.508
2016-04-16 02:45:00,1852E-3,5C000400,-0724,0835,12436,023.5,045.3,0.263,761.8,01.16,0.508
2016-04-16 02:46:00,1643E-3,5C000400,-0724,0837,12333,023.4,045.3,0.263,761.8,01.16,0.508
2016-04-16 02:47:00,1723E-3,5C000400,-0724,0836,12288,023.4,045.3,0.263,761.8,01.16,0.508
2016-04-16 02:48:00,1819E-3,5C000400,-0724,0833,12339,023.5,045.3,0.263,761.8,01.16,0.508
2016-04-16 02:49:00,1672E-3,5C000400,-0724,0836,12473,023.5,045.3,0.263,761.8,01.16,0.508
2016-04-16 02:50:00,1748E-3,5C000400,-0724,0835,12289,023.5,045.3,0.263,761.8,01.16,0.508
2016-04-16 02:51:00,1740E-3,5C000400,-0724,0839,12098,023.5,045.3,0.263,761.8,01.16,0.508
2016-04-16 02:52:00,1733E-3,5C000400,-0724,0837,12081,023.5,045.3,0.263,761.8,01.16,0.508
2016-04-16 02:53:00,1923E-3,5C000400,-0724,0834,12227,023.5,045.3,0.263,761.8,01.16,0.508
2016-04-16 02:54:00,1824E-3,5C000400,-0724,0834,12254,023.5,045.3,0.263,761.8,01.16,0.508
2016-04-16 02:55:00,1835E-3,5C000400,-0724,0832,10889,023.5,045.3,0.263,761.8,01.16,0.508
2016-04-16 02:56:00,1856E-3,5C000400,-0724,0834,10995,023.5,045.3,0.263,761.8,01.16,0.508
2016-04-16 02:57:00,1850E-3,5C000400,-0724,0837,12443,023.5,045.3,0.263,761.8,01.16,0.508
2016-04-16 02:58:00,1796E-3,5C000400,-0724,0835,12194,023.6,045.3,0.263,761.8,01.16,0.508
2016-04-16 02:59:00,1766E-3,5C000410,-0724,0836,12505,023.5,045.3,0.263,761.8,01.16,0.508
2016-04-16 03:00:00,1764E-3,5C000400,-0724,0832,12380,023.6,045.3,0.263,761.8,01.16,0.508
2016-04-16 03:01:00,1874E-3,5C000400,-0724,0832,12231,023.6,045.3,0.263,761.8,01.16,0.508
2016-04-16 03:02:00,1656E-3,5C000400,-0724,0839,10432,023.6,045.3,0.263,761.8,01.16,0.508
2016-04-16 03:03:00,1732E-3,5C000400,-0724,0841,11542,023.6,045.3,0.263,761.8,01.16,0.508
2016-04-16 03:04:00,1699E-3,5C000400,-0724,0836,12313,023.6,045.3,0.263,761.8,01.16,0.508
2016-04-16 03:05:00,1764E-3,5C000400,-0724,0833,12122,023.6,045.3,0.263,761.8,01.16,0.508
2016-04-16 03:06:00,1623E-3,5C000400,-0724,0835,12365,023.6,045.3,0.263,761.8,01.16,0.508
2016-04-16 03:07:00,1722E-3,5C000400,-0724,0838,12374,023.6,045.3,0.263,761.8,01.16,0.508
2016-04-16 03:08:00,1733E-3,5C000400,-0724,0834,12240,023.6,045.3,0.263,761.7,01.16,0.508
2016-04-16 03:09:00,1782E-3,5C000400,-0724,0833,12189,023.6,045.3,0.263,761.7,01.16,0.508
2016-04-16 03:10:00,1888E-3,5C000400,-0724,0844,12487,023.6,045.3,0.263,761.8,01.16,0.508
2016-04-16 03:11:00,1675E-3,5C000400,-0724,0836,12257,023.6,045.3,0.263,761.8,01.16,0.508
2016-04-16 03:12:00,1818E-3,5C000400,-0724,0834,11169,023.7,045.3,0.262,761.8,01.16,0.508
2016-04-16 03:13:00,1722E-3,5C000400,-0724,0838,12303,023.7,045.3,0.263,761.8,01.16,0.508
2016-04-16 03:14:00,1777E-3,5C000400,-0724,0836,11118,023.7,045.3,0.263,761.8,01.16,0.508
2016-04-16 03:15:00,1656E-3,5C000400,-0724,0841,11350,023.7,045.3,0.263,761.8,01.16,0.508
2016-04-16 03:16:00,1815E-3,5C000400,-0724,0835,11333,023.7,045.3,0.263,761.8,01.16,0.508
2016-04-16 03:17:00,1520E-3,5C000400,-0724,0837,12387,023.7,045.3,0.262,761.8,01.16,0.508
2016-04-16 03:18:00,1811E-3,5C000400,-0724,0838,9896,023.7,045.3,0.263,761.8,01.16,0.508
2016-04-16 03:19:00,1725E-3,5C000400,-0724,0839,11004,023.7,045.3,0.263,761.8,01.16,0.508
2016-04-16 03:20:00,1686E-3,5C000400,-0724,0838,12404,023.7,045.3,0.263,761.8,01.16,0.508
2016-04-16 03:21:00,1776E-3,5C000400,-0724,0836,12379,023.7,045.3,0.262,761.8,01.16,0.508
2016-04-16 03:22:00,1793E-3,5C000400,-0724,0838,12469,023.7,045.3,0.263,761.8,01.16,0.508
2016-04-16 03:23:00,1673E-3,5C000400,-0724,0836,12360,023.7,045.3,0.263,761.8,01.16,0.508
2016-04-16 03:24:00,1618E-3,5C000400,-0724,0837,12301,023.7,045.3,0.262,761.8,01.16,0.508
2016-04-16 03:25:00,1665E-3,5C000400,-0724,0836,12377,023.8,045.3,0.262,761.9,01.16,0.508
2016-04-16 03:26:00,1707E-3,5C000400,-0724,0838,12344,023.8,045.3,0.263,761.9,01.16,0.508
2016-04-16 03:27:00,1858E-3,5C000400,-0724,0832,11123,023.8,045.3,0.263,761.8,01.16,0.508
2016-04-16 03:28:00,1736E-3,5C000400,-0724,0834,11363,023.8,045.3,0.263,761.9,01.16,0.508
2016-04-16 03:29:00,1726E-3,5C000400,-0724,0838,12359,023.8,045.3,0.262,761.9,01.16,0.508
2016-04-16 03:30:00,1557E-3,5C000400,-0724,0841,9004,023.8,045.3,0.262,761.9,01.16,0.508
2016-04-16 03:31:00,1626E-3,5C000400,-0724,0843,10278,023.8,045.3,0.262,761.9,01.16,0.508
2016-04-16 03:32:00,1562E-3,5C000400,-0724,0839,12306,023.8,045.3,0.262,761.8,01.16,0.508
2016-04-16 03:33:00,1796E-3,5C000400,-0724,0835,12158,023.8,045.3,0.263,761.8,01.16,0.508
2016-04-16 03:34:00,1843E-3,5C000400,-0724,0838,11526,023.8,045.3,0.263,761.8,01.16,0.508
2016-04-16 03:35:00,1675E-3,5C000400,-0724,0842,11172,023.8,045.3,0.263,761.8,01.16,0.508
2016-04-16 03:36:00,1759E-3,5C000400,-0724,0839,10087,023.8,045.3,0.263,761.8,01.16,0.508
2016-04-16 03:37:00,1695E-3,5C000400,-0724,0835,12311,023.8,045.3,0.263,761.8,01.16,0.508
2016-04-16 03:38:00,1635E-3,5C000400,-0724,0844,11409,023.9,045.3,0.263,761.8,01.16,0.508
2016-04-16 03:39:00,1759E-3,5C000400,-0724,0837,12436,023.9,045.3,0.262,761.8,01.16,0.508
2016-04-16 03:40:00,1706E-3,5C000400,-0724,0833,11343,023.8,045.3,0.262,761.8,01.16,0.508
2016-04-16 03:41:00,1797E-3,5C000410,-0724,0837,12450,023.9,045.3,0.262,761.8,01.16,0.508
2016-04-16 03:42:00,1599E-3,5C000400,-0724,0838,12639,023.9,045.3,0.263,761.7,01.16,0.508
2016-04-16 03:43:00,1725E-3,5C000400,-0724,0836,12505,023.9,045.3,0.262,761.7,01.16,0.508
2016-04-16 03:44:00,1654E-3,5C000400,-0724,0839,12522,023.9,045.3,0.262,761.7,01.16,0.508
2016-04-16 03:45:00,1726E-3,5C000400,-0724,0838,12189,023.9,045.3,0.263,761.7,01.16,0.508
2016-04-16 03:46:00,1649E-3,5C000400,-0724,0837,12277,023.9,045.3,0.262,761.7,01.16,0.508
2016-04-16 03:47:00,1736E-3,5C000400,-0724,0836,11441,023.9,045.3,0.262,761.7,01.16,0.508
2016-04-16 03:48:00,1867E-3,5C000400,-0724,0835,12239,023.9,045.3,0.263,761.8,01.16,0.508
2016-04-16 03:49:00,1707E-3,5C000400,-0724,0835,12256,023.9,045.3,0.262,761.7,01.16,0.508
2016-04-16 03:50:00,1702E-3,5C000400,-0724,0834,12502,023.9,045.3,0.263,761.7,01.16,0.508
2016-04-16 03:51:00,1731E-3,5C000400,-0724,0837,12104,024.0,045.3,0.262,761.8,01.16,0.508
2016-04-16 03:52:00,1773E-3,5C000400,-0724,0837,12145,024.0,045.3,0.263,761.7,01.16,0.508
2016-04-16 03:53:00,1723E-3,5C000400,-0724,0836,12226,024.0,045.3,0.262,761.7,01.16,0.508
2016-04-16 03:54:00,1830E-3,5C000400,-0724,0837,12173,024.0,045.3,0.262,761.7,01.16,0.508
2016-04-16 03:55:00,1578E-3,5C000410,-0724,0837,12489,024.0,045.3,0.263,761.7,01.16,0.508
2016-04-16 03:56:00,1705E-3,5C000400,-0724,0837,11292,024.0,045.3,0.262,761.7,01.16,0.508
2016-04-16 03:57:00,1762E-3,5C000400,-0724,0837,12354,024.0,045.3,0.262,761.7,01.16,0.508
2016-04-16 03:58:00,1946E-3,5C000400,-0724,0835,12360,024.0,045.3,0.262,761.7,01.16,0.508
2016-04-16 03:59:00,1673E-3,5C000400,-0724,0837,11314,024.0,045.3,0.262,761.7,01.16,0.508
2016-04-16 04:00:00,1701E-3,5C000400,-0724,0839,12485,024.0,045.3,0.262,761.7,01.16,0.508
2016-04-16 04:01:00,1797E-3,5C000400,-0724,0837,10995,024.1,045.3,0.262,761.7,01.16,0.508
2016-04-16 04:02:00,1640E-3,5C000400,-0724,0836,9983,024.0,045.3,0.262,761.8,01.16,0.508
2016-04-16 04:03:00,1697E-3,5C000400,-0724,0843,12467,024.0,045.3,0.262,761.7,01.16,0.508
2016-04-16 04:04:00,1655E-3,5C000400,-0724,0837,11052,024.0,045.3,0.262,761.7,01.16,0.508
2016-04-16 04:05:00,1563E-3,5C000400,-0724,0840,12418,024.0,045.3,0.262,761.7,01.16,0.508
2016-04-16 04:06:00,1612E-3,5C000410,-0724,0843,9983,024.0,045.3,0.262,761.7,01.16,0.508
2016-04-16 04:07:00,1620E-3,5C000400,-0724,0840,12654,024.1,045.3,0.263,761.7,01.16,0.508
2016-04-16 04:08:00,1754E-3,5C000410,-0724,0834,9866,024.1,045.3,0.263,761.7,01.16,0.508
2016-04-16 04:09:00,1759E-3,5C000400,-0724,0835,12145,024.1,045.3,0.262,761.7,01.16,0.508
2016-04-16 04:10:00,1691E-3,5C000400,-0724,0838,12543,024.1,045.3,0.263,761.7,01.16,0.508
2016-04-16 04:11:00,1582E-3,5C000400,-0724,0836,12333,024.1,045.3,0.262,761.7,01.16,0.508
2016-04-16 04:12:00,1709E-3,5C000400,-0724,0837,9945,024.1,045.3,0.262,761.7,01.16,0.508
2016-04-16 04:13:00,1772E-3,5C000400,-0724,0839,12358,024.1,045.3,0.262,761.7,01.16,0.508
2016-04-16 04:14:00,1767E-3,5C000400,-0724,0838,11417,024.1,045.3,0.262,761.7,01.16,0.508
2016-04-16 04:15:00,1746E-3,5C000400,-0724,0835,12280,024.1,045.3,0.262,761.7,01.16,0.508
2016-04-16 04:16:00,1781E-3,5C000400,-0724,0838,11246,024.1,045.3,0.262,761.7,01.16,0.508
2016-04-16 04:17:00,1760E-3,5C000400,-0724,0836,11202,024.1,045.3,0.262,761.7,01.16,0.508
2016-04-16 04:18:00,1614E-3,5C000400,-0724,0835,9825,024.1,045.3,0.262,761.7,01.16,0.508
2016-04-16 04:19:00,1794E-3,5C000400,-0724,0837,12201,024.1,045.3,0.262,761.7,01.16,0.508
2016-04-16 04:20:00,1765E-3,5C000400,-0724,0836,9865,024.2,045.3,0.262,761.7,01.16,0.508